Weather History for KMYL - February, 2013

Change the Weather History Date:

Sunday, February 17, 2013

  Actual Average Record
Temperature  
Mean Temperature 21 °F 22 °F  
Max Temperature 32 °F 34 °F 53 °F (1996)
Min Temperature 9 °F 11 °F -20 °F (1942)
Degree Days  
Heating Degree Days 44 43  
Month to date heating degree days 666 743  
Since 1 July heating degree days 5519 6217  
Cooling Degree Days 0 0  
Month to date cooling degree days 0 0  
Year to date cooling degree days 0 0  
Moisture  
Dew Point 18 °F    
Average Humidity 80    
Maximum Humidity 96    
Minimum Humidity 63    
Precipitation  
Precipitation T in 0.06 in 0.71 in (1989)
Month to date precipitation 0.14 1.09  
Year to date precipitation 3.04 2.82  
Sea Level Pressure  
Sea Level Pressure 30.03 in    
Wind  
Wind Speed 2 mph (NNW)    
Max Wind Speed 9 mph    
Max Gust Speed 12 mph    
Visibility 8 miles    
Events Fog    
T = Trace of Precipitation, MM = Missing Value Source: NWS Daily Summary

Daily Weather History Graph

Daily Weather History Graph

Search for Another Location

Airport or City:

Trip Planner

Search our weather history database for the weather conditions in past years. The results will help you decide how hot, cold, wet, or windy it might be!

Date:

Astronomy

Feb. 17, 2013 Rise Set
Actual Time 7:41 AM MST 6:15 PM MST
Civil Twilight 7:11 AM MST 6:45 PM MST
Nautical Twilight 6:37 AM MST 7:20 PM MST
Astronomical Twilight 6:03 AM MST 7:54 PM MST
Moon 11:16 AM MST (2/17) 1:35 AM MST (2/17)
Length of Visible Light 11h 34m
Length of Day
10h 34m
Waxing Crescent, 49% of the Moon is Illuminated
Feb 17
Waxing Crescent
Feb 17
First Quarter
Feb 25
Full
Mar 4
Last Quarter
Mar 11
New

Hourly Weather History & Observations

Time (MST) Temp. Windchill Dew Point Humidity Pressure Visibility Wind Dir Wind Speed Gust Speed Precip Events Conditions
12:48 AM 23.0 °F - 21.2 °F 93% 29.92 in 2.0 mi Calm Calm - N/A   Scattered Clouds
12:51 AM 23.0 °F - 21.0 °F 92% 30.00 in 2.5 mi Calm Calm - N/A   Scattered Clouds
12:57 AM 21.2 °F - 19.4 °F 93% 29.92 in 1.0 mi Calm Calm - N/A   Partly Cloudy
1:02 AM 21.2 °F - 19.4 °F 93% 29.92 in 0.5 mi Calm Calm - N/A Fog Light Freezing Fog
1:17 AM 23.0 °F - 21.2 °F 93% 29.93 in 1.8 mi Calm Calm - N/A   Mostly Cloudy
1:19 AM 24.8 °F - 21.2 °F 86% 29.93 in 3.0 mi Calm Calm - N/A   Mostly Cloudy
1:51 AM 25.0 °F - 23.0 °F 92% 29.99 in 10.0 mi Calm Calm - N/A   Overcast
2:51 AM 27.0 °F 20.5 °F 24.1 °F 89% 29.99 in 10.0 mi North 5.8 mph - N/A   Overcast
3:02 AM 26.6 °F 21.2 °F 24.8 °F 93% 29.93 in 10.0 mi North 4.6 mph - N/A   Overcast
3:51 AM 21.9 °F - 19.9 °F 92% 29.98 in 10.0 mi Calm Calm - N/A   Clear
4:09 AM 17.6 °F - 15.8 °F 93% 29.92 in 1.0 mi Calm Calm - N/A   Clear
4:15 AM 19.4 °F - 15.8 °F 86% 29.92 in 0.2 mi Calm Calm - N/A Fog Light Freezing Fog
4:31 AM 17.6 °F 12.3 °F 15.8 °F 93% 29.92 in 1.2 mi ENE 3.5 mph - N/A   Clear
4:37 AM 17.6 °F - 14.0 °F 86% 29.93 in 4.0 mi Calm Calm - N/A   Clear
4:51 AM 18.0 °F - 16.0 °F 92% 30.01 in 10.0 mi Calm Calm - N/A   Mostly Cloudy
5:51 AM 19.0 °F - 16.0 °F 88% 30.01 in 10.0 mi Calm Calm - N/A   Overcast
6:51 AM 19.0 °F 13.9 °F 17.1 °F 92% 30.02 in 10.0 mi NE 3.5 mph - N/A   Partly Cloudy
7:51 AM 17.1 °F - 16.0 °F 96% 30.04 in 10.0 mi Calm Calm - N/A   Mostly Cloudy
8:51 AM 17.1 °F - 15.1 °F 92% 30.07 in 10.0 mi Calm Calm - N/A   Scattered Clouds
9:51 AM 23.0 °F 18.4 °F 19.9 °F 88% 30.08 in 10.0 mi West 3.5 mph - N/A   Overcast
10:51 AM 26.1 °F 20.5 °F 19.9 °F 78% 30.08 in 10.0 mi WSW 4.6 mph - N/A   Overcast
11:51 AM 26.1 °F 21.9 °F 19.0 °F 75% 30.08 in 10.0 mi SE 3.5 mph - N/A   Overcast
12:51 PM 28.0 °F - 19.0 °F 69% 30.09 in 10.0 mi Calm Calm - N/A   Overcast
1:51 PM 30.0 °F - 19.0 °F 64% 30.06 in 10.0 mi Calm Calm - 0.00 in   Overcast
2:51 PM 30.9 °F 25.2 °F 19.0 °F 61% 30.06 in 10.0 mi WSW 5.8 mph - N/A   Overcast
3:51 PM 30.0 °F 26.5 °F 19.9 °F 66% 30.09 in 10.0 mi Variable 3.5 mph - 0.00 in   Overcast
4:51 PM 30.0 °F 24.1 °F 19.9 °F 66% 30.11 in 10.0 mi West 5.8 mph - N/A   Mostly Cloudy
5:51 PM 28.0 °F - 19.9 °F 72% 30.11 in 10.0 mi Calm Calm - N/A   Mostly Cloudy
6:51 PM 25.0 °F - 19.0 °F 78% 30.13 in 10.0 mi Calm Calm - N/A   Scattered Clouds
7:51 PM 19.9 °F - 17.1 °F 89% 30.16 in 10.0 mi Calm Calm - N/A   Clear
8:51 PM 19.9 °F 13.4 °F 17.1 °F 89% 30.17 in 10.0 mi North 4.6 mph - N/A   Clear
10:51 PM 14.0 °F - 9.0 °F 80% 30.18 in 10.0 mi Calm Calm - N/A   Clear
11:51 PM 10.0 °F - 6.1 °F 84% 30.19 in 10.0 mi Calm Calm - N/A   Clear